Weather History for KEKQ - May, 2013

Change the Weather History Date:

Wednesday, May 8, 2013

  Actual Average Record
Temperature  
Mean Temperature 64 °F -  
Max Temperature 75 °F 74 °F 88 °F (2015)
Min Temperature 54 °F 50 °F 32 °F (1989)
Growing Degree Days 14 (Base 50)    
Moisture  
Dew Point 58 °F    
Average Humidity 82    
Maximum Humidity 100    
Minimum Humidity 50    
Precipitation  
Precipitation 0.00 in - - ()
Sea Level Pressure  
Sea Level Pressure 30.03 in    
Wind  
Wind Speed 4 mph (WNW)    
Max Wind Speed 14 mph    
Max Gust Speed 17 mph    
Visibility 8 miles    
Events      
Averages and records for this station are not official NWS values.
T = Trace of Precipitation, MM = Missing Value Source: NWS Daily Summary

Daily Weather History Graph

Daily Weather History Graph

Search for Another Location

Airport or City:

Trip Planner

Search our weather history database for the weather conditions in past years. The results will help you decide how hot, cold, wet, or windy it might be!

Date:

Astronomy

May. 08, 2013 Rise Set
Actual Time 5:37 AM CDT 7:34 PM CDT
Civil Twilight 5:09 AM CDT 8:03 PM CDT
Nautical Twilight 4:34 AM CDT 8:37 PM CDT
Astronomical Twilight 3:57 AM CDT 9:14 PM CDT
Moon 4:43 AM CDT (5/8) 6:33 PM CDT (5/8)
Length of Visible Light 14h 53m
Length of Day
13h 56m
Waning Crescent, 2% of the Moon is Illuminated
May 8
Waning Crescent
May 9
New
May 17
First Quarter
May 24
Full
May 31
Last Quarter

Hourly Weather History & Observations

Time (CDT) Temp. Dew Point Humidity Pressure Visibility Wind Dir Wind Speed Gust Speed Precip Events Conditions
12:56 AM 56.8 °F 56.8 °F 100% 29.99 in 4.0 mi SSW 4.6 mph - 0.00 in   Mostly Cloudy
1:56 AM 56.8 °F 56.8 °F 100% 29.97 in 8.0 mi SW 3.5 mph - N/A   Mostly Cloudy
2:56 AM 56.8 °F 56.8 °F 100% 29.96 in 5.0 mi Calm Calm - N/A   Mostly Cloudy
3:56 AM 55.9 °F 55.9 °F 100% 29.97 in 5.0 mi Calm Calm - N/A   Mostly Cloudy
4:56 AM 54.9 °F 54.9 °F 100% 29.97 in 3.0 mi Calm Calm - N/A   Scattered Clouds
5:06 AM 55.4 °F 55.4 °F 100% 29.97 in 2.0 mi Calm Calm - N/A   Partly Cloudy
5:13 AM 55.4 °F 55.4 °F 100% 29.97 in 1.8 mi Calm Calm - N/A   Mostly Cloudy
5:26 AM 55.4 °F 55.4 °F 100% 29.98 in 2.5 mi Calm Calm - N/A   Mostly Cloudy
5:39 AM 55.4 °F 55.4 °F 100% 29.98 in 1.5 mi Calm Calm - N/A   Overcast
5:56 AM 55.9 °F 55.9 °F 100% 30.00 in 3.0 mi Calm Calm - N/A   Overcast
6:56 AM 57.9 °F 57.9 °F 100% 30.03 in 7.0 mi Calm Calm - N/A   Mostly Cloudy
7:56 AM 59.9 °F 59.0 °F 97% 30.04 in 10.0 mi WSW 9.2 mph - N/A   Partly Cloudy
8:14 AM 60.8 °F 59.0 °F 94% 30.04 in 10.0 mi West 6.9 mph - N/A   Mostly Cloudy
8:41 AM 62.6 °F 60.8 °F 94% 30.04 in 10.0 mi West 8.1 mph - N/A   Scattered Clouds
8:56 AM 63.0 °F 59.9 °F 90% 30.05 in 10.0 mi WNW 5.8 mph - N/A   Partly Cloudy
9:56 AM 65.8 °F 59.9 °F 81% 30.05 in 10.0 mi West 8.1 mph - N/A   Scattered Clouds
10:07 AM 66.2 °F 60.8 °F 83% 30.05 in 10.0 mi West 6.9 mph - N/A   Mostly Cloudy
10:49 AM 68.0 °F 60.8 °F 78% 30.05 in 10.0 mi NW 4.6 mph - N/A   Mostly Cloudy
10:56 AM 68.9 °F 59.9 °F 73% 30.05 in 10.0 mi NNW 4.6 mph - N/A   Mostly Cloudy
11:23 AM 68.0 °F 59.0 °F 73% 30.05 in 10.0 mi Variable 4.6 mph - N/A   Mostly Cloudy
11:56 AM 70.0 °F 59.0 °F 68% 30.04 in 10.0 mi NW 9.2 mph - N/A   Mostly Cloudy
12:06 PM 71.6 °F 59.0 °F 64% 30.04 in 10.0 mi West 8.1 mph - N/A   Mostly Cloudy
12:17 PM 69.8 °F 57.2 °F 64% 30.04 in 10.0 mi NW 9.2 mph - N/A   Mostly Cloudy
12:56 PM 72.0 °F 54.9 °F 55% 30.04 in 10.0 mi NW 9.2 mph - N/A   Mostly Cloudy
1:56 PM 72.9 °F 55.9 °F 55% 30.04 in 10.0 mi North 8.1 mph - N/A   Clear
2:56 PM 75.9 °F 55.9 °F 50% 30.03 in 10.0 mi NW 8.1 mph - N/A   Scattered Clouds
3:56 PM 73.9 °F 55.9 °F 53% 30.01 in 10.0 mi WNW 8.1 mph - N/A   Partly Cloudy
4:56 PM 74.8 °F 55.9 °F 52% 30.01 in 10.0 mi WNW 11.5 mph - N/A   Partly Cloudy
5:56 PM 74.8 °F 55.9 °F 52% 30.01 in 10.0 mi WNW 8.1 mph - N/A   Clear
6:56 PM 72.9 °F 57.9 °F 59% 30.03 in 10.0 mi WNW 4.6 mph - N/A   Mostly Cloudy
7:56 PM 63.9 °F 59.0 °F 84% 30.06 in 10.0 mi NE 5.8 mph - N/A   Clear
8:56 PM 63.0 °F 57.9 °F 84% 30.08 in 10.0 mi ENE 5.8 mph - N/A   Clear
9:56 PM 60.8 °F 57.2 °F 88% 30.09 in 10.0 mi Calm Calm - N/A   Clear
10:56 PM 61.0 °F 57.9 °F 90% 30.08 in 10.0 mi Calm Calm - N/A   Mostly Cloudy
11:56 PM 59.9 °F 57.9 °F 93% 30.10 in 10.0 mi NNW 13.8 mph 17.3 mph N/A   Scattered Clouds